Погода в Рабаце

Хорватия     45°04′37″N   14°09′47″E
темп.,
°C
ветер,
м/с
пор.,
м/с
влажн.,
%
обл.,
%
осадки,
мм/ч
давл.,
гПа
погр.,
м
23 октября, сб
сб2323:00+16ссв3384100 0.4 1019163
02:00+16ссв338398 0.4 1019158
05:00+16ссв337899 0.0 1018148
08:00+16ссв5577100 0.0 1019228
11:00+16св687594 0.0 1021515
14:00+14всв910641 0.0 1023622
17:00+14св910620 0.0 1023643
20:00+13св810670 0.0 1025610
24 октября, вс
вс2423:00+13св811660 0.0 1027627
02:00+12св911650 0.0 1027606
05:00+12св911680 0.0 1026535
08:00+12св9116923 0.0 1027585
11:00+13св810594 0.0 1028653
14:00+15св79500 0.0 1027848
17:00+15св78510 0.0 1026782
20:00+13св79600 0.0 1026506
25 октября, пн
пн2523:00+12ссв78610 0.0 1026449
02:00+12ссв66600 0.0 1025370
05:00+11ссв56600 0.0 1024326
08:00+11ссв56580 0.0 1024348
11:00+12св55530 0.0 1024392
14:00+14ссв24440 0.0 1023355
17:00+14св23430 0.0 1022179
20:00+14св44530 0.0 1023351
26 октября, вт
вт2623:00+12ссв44590 0.0 1023285
02:00+11ссв44589 0.0 1022279
05:00+11ссв445721 0.0 1021276
08:00+11ссв4455100 0.0 1021278
11:00+12ссв3351100 0.0 1022300
14:00+14св2246100 0.0 1021221
17:00+15с224181 0.0 1020102
20:00+14св665687 0.0 1021334
27 октября, ср
ср2723:00+13св686148 0.0 1022350
02:00+13св9116247 0.0 1021475
05:00+13св9136116 0.0 1021696
08:00+13св1013605 0.0 1022833
11:00+14св1114550 0.0 10221027
14:00+15всв1114505 0.0 10211160
17:00+14св11135293 0.0 10211028
20:00+13св121556100 0.0 1022943